• In Hungary
  • List of Countries
  • For 7 days
  • Water Temperature
  • Satellite Maps
  • Weather Map
  • News
  • Weather Widgets
  • user-avatar
    Login

    Hourly Weather Gashey

    Today, 22 September, Saturday

    Time Temperature Precipitation Wind Pressure Humidity
    00:00 +3°C° 0.1 mm 2 mps 697 mmHg 87%
    01:00 +2°C° 0 mm 2 mps 697 mmHg 88%
    02:00 +2°C° 0.1 mm 2 mps 697 mmHg 88%
    03:00 +3°C° 0.1 mm 1 mps 697 mmHg 89%
    04:00 +3°C° 0.1 mm 1 mps 697 mmHg 89%
    05:00 +3°C° 0 mm 1 mps 698 mmHg 87%
    06:00 +4°C° 0 mm 1 mps 698 mmHg 85%
    07:00 +5°C° 0 mm 1 mps 699 mmHg 81%
    08:00 +7°C° 0 mm 1 mps 699 mmHg 76%
    09:00 +8°C° 0 mm 1 mps 699 mmHg 70%
    10:00 +10°C° 0 mm 1 mps 699 mmHg 65%
    11:00 +11°C° 0 mm 1 mps 699 mmHg 62%
    12:00 +10°C° 0 mm 2 mps 699 mmHg 59%
    13:00 +12°C° 0 mm 2 mps 699 mmHg 56%
    14:00 +12°C° 0 mm 2 mps 699 mmHg 55%
    15:00 +13°C° 0 mm 1 mps 699 mmHg 55%
    16:00 +13°C° 0 mm 1 mps 699 mmHg 55%
    17:00 +11°C° 0 mm 1 mps 699 mmHg 62%
    18:00 +9°C° 0 mm 1 mps 699 mmHg 69%
    19:00 +7°C° 0 mm 1 mps 699 mmHg 75%
    20:00 +6°C° 0 mm 1 mps 699 mmHg 78%
    21:00 +5°C° 0 mm 1 mps 699 mmHg 80%
    22:00 +5°C° 0 mm 1 mps 699 mmHg 82%
    23:00 +4°C° 0 mm 1 mps 699 mmHg 84%

    Tomorrow, 23 September, Sunday

    Time Temperature Precipitation Wind Pressure Humidity
    00:00 +4°C° 0 mm 1 mps 699 mmHg 85%
    01:00 +4°C° 0 mm 1 mps 699 mmHg 86%
    02:00 +3°C° 0 mm 1 mps 699 mmHg 87%
    03:00 +3°C° 0 mm 1 mps 698 mmHg 88%
    04:00 +3°C° 0 mm 1 mps 698 mmHg 89%
    05:00 +3°C° 0 mm 1 mps 698 mmHg 87%
    06:00 +4°C° 0 mm 1 mps 699 mmHg 84%
    07:00 +5°C° 0 mm 1 mps 699 mmHg 82%
    08:00 +6°C° 0 mm 2 mps 699 mmHg 74%
    09:00 +8°C° 0 mm 2 mps 698 mmHg 67%
    10:00 +12°C° 0 mm 2 mps 698 mmHg 59%
    11:00 +13°C° 0 mm 2 mps 698 mmHg 55%
    12:00 +14°C° 0 mm 2 mps 697 mmHg 51%
    13:00 +15°C° 0 mm 2 mps 697 mmHg 47%
    14:00 +15°C° 0 mm 2 mps 697 mmHg 48%
    15:00 +15°C° 0 mm 2 mps 696 mmHg 49%
    16:00 +15°C° 0 mm 2 mps 696 mmHg 49%
    17:00 +12°C° 0 mm 1 mps 696 mmHg 57%
    18:00 +10°C° 0 mm 1 mps 696 mmHg 64%
    19:00 +8°C° 0 mm 1 mps 696 mmHg 72%
    20:00 +7°C° 0 mm 1 mps 696 mmHg 74%
    21:00 +6°C° 0 mm 1 mps 696 mmHg 77%
    22:00 +6°C° 0 mm 1 mps 696 mmHg 79%
    23:00 +6°C° 0 mm 1 mps 696 mmHg 80%

    Day after tomorrow, 24 September, Monday

    Time Temperature Precipitation Wind Pressure Humidity
    00:00 +5°C° 0 mm 1 mps 695 mmHg 81%
    01:00 +5°C° 0 mm 1 mps 695 mmHg 82%
    02:00 +4°C° 0 mm 1 mps 695 mmHg 83%
    03:00 +4°C° 0 mm 1 mps 695 mmHg 84%
    04:00 +4°C° 0 mm 1 mps 695 mmHg 85%
    05:00 +4°C° 0 mm 1 mps 695 mmHg 82%
    06:00 +5°C° 0 mm 1 mps 695 mmHg 80%
    07:00 +6°C° 0 mm 1 mps 695 mmHg 77%
    08:00 +8°C° 0 mm 1 mps 695 mmHg 69%
    09:00 +10°C° 0 mm 1 mps 695 mmHg 62%
    10:00 +12°C° 0 mm 1 mps 694 mmHg 54%
    11:00 +13°C° 0 mm 1 mps 694 mmHg 50%
    12:00 +14°C° 0 mm 1 mps 694 mmHg 47%
    13:00 +15°C° 0 mm 1 mps 694 mmHg 43%
    14:00 +15°C° 0 mm 1 mps 693 mmHg 44%
    15:00 +15°C° 0 mm 1 mps 693 mmHg 46%
    16:00 +14°C° 0 mm 0 mps 693 mmHg 47%
    17:00 +12°C° 0 mm 0 mps 693 mmHg 53%
    18:00 +11°C° 0 mm 1 mps 693 mmHg 59%
    19:00 +9°C° 0 mm 1 mps 693 mmHg 65%
    20:00 +8°C° 0 mm 1 mps 693 mmHg 68%
    21:00 +8°C° 0 mm 1 mps 693 mmHg 70%
    22:00 +7°C° 0 mm 1 mps 693 mmHg 73%
    23:00 +7°C° 0 mm 1 mps 693 mmHg 75%

    25 September, Tuesday

    Time Temperature Precipitation Wind Pressure Humidity
    00:00 +6°C° 0 mm 1 mps 693 mmHg 76%
    01:00 +6°C° 0 mm 1 mps 692 mmHg 78%
    02:00 +5°C° 0 mm 1 mps 692 mmHg 79%
    03:00 +5°C° 0 mm 1 mps 692 mmHg 81%
    04:00 +4°C° 0 mm 0 mps 692 mmHg 82%
    05:00 +5°C° 0 mm 1 mps 693 mmHg 79%
    06:00 +6°C° 0 mm 1 mps 693 mmHg 77%
    07:00 +7°C° 0 mm 1 mps 693 mmHg 74%
    08:00 +9°C° 0 mm 0 mps 693 mmHg 66%
    09:00 +11°C° 0 mm 0 mps 693 mmHg 58%
    10:00 +14°C° 0 mm 0 mps 693 mmHg 50%
    11:00 +15°C° 0 mm 0 mps 693 mmHg 47%
    12:00 +16°C° 0 mm 0 mps 693 mmHg 43%
    13:00 +17°C° 0 mm 0 mps 693 mmHg 40%
    14:00 +17°C° 0 mm 0 mps 693 mmHg 41%
    15:00 +16°C° 0 mm 0 mps 693 mmHg 41%
    16:00 +16°C° 0 mm 0 mps 692 mmHg 42%
    17:00 +14°C° 0 mm 0 mps 692 mmHg 48%
    18:00 +12°C° 0 mm 1 mps 692 mmHg 55%
    19:00 +10°C° 0 mm 1 mps 692 mmHg 61%
    20:00 +9°C° 0 mm 1 mps 692 mmHg 64%
    21:00 +9°C° 0 mm 1 mps 692 mmHg 66%
    22:00 +8°C° 0 mm 1 mps 692 mmHg 68%
    23:00 +8°C° 0 mm 1 mps 691 mmHg 69%

    26 September, Wednesday

    Time Temperature Precipitation Wind Pressure Humidity
    00:00 +8°C° 0 mm 1 mps 691 mmHg 70%
    01:00 +8°C° 0 mm 1 mps 691 mmHg 72%
    02:00 +7°C° 0 mm 1 mps 691 mmHg 72%
    03:00 +7°C° 0 mm 1 mps 691 mmHg 73%
    04:00 +7°C° 0 mm 1 mps 691 mmHg 74%
    05:00 +7°C° 0 mm 1 mps 691 mmHg 74%
    06:00 +8°C° 0 mm 1 mps 691 mmHg 73%
    07:00 +8°C° 0 mm 1 mps 691 mmHg 72%
    08:00 +10°C° 0 mm 1 mps 691 mmHg 66%
    09:00 +12°C° 0 mm 1 mps 692 mmHg 60%
    10:00 +14°C° 0 mm 2 mps 692 mmHg 53%
    11:00 +15°C° 0 mm 2 mps 691 mmHg 52%
    12:00 +14°C° 0 mm 3 mps 691 mmHg 51%
    13:00 +16°C° 0 mm 3 mps 691 mmHg 50%
    14:00 +14°C° 0 mm 4 mps 691 mmHg 52%
    15:00 +14°C° 0 mm 4 mps 691 mmHg 53%
    16:00 +14°C° 0 mm 4 mps 691 mmHg 55%
    17:00 +12°C° 0 mm 4 mps 691 mmHg 61%
    18:00 +11°C° 0 mm 4 mps 691 mmHg 66%
    19:00 +8°C° 0 mm 4 mps 691 mmHg 72%
    20:00 +8°C° 0 mm 4 mps 691 mmHg 75%
    21:00 +8°C° 0 mm 4 mps 691 mmHg 77%
    22:00 +7°C° 0 mm 4 mps 692 mmHg 80%
    23:00 +7°C° 0 mm 4 mps 692 mmHg 81%

    27 September, Thursday

    Time Temperature Precipitation Wind Pressure Humidity
    00:00 +6°C° 0 mm 4 mps 692 mmHg 82%
    01:00 +6°C° 0 mm 4 mps 692 mmHg 83%
    02:00 +5°C° 0.1 mm 4 mps 692 mmHg 83%
    03:00 +5°C° 0.1 mm 4 mps 692 mmHg 84%
    04:00 +4°C° 0.1 mm 3 mps 693 mmHg 85%
    05:00 +4°C° 0 mm 3 mps 693 mmHg 84%
    06:00 +5°C° 0 mm 3 mps 694 mmHg 83%
    07:00 +5°C° 0 mm 3 mps 694 mmHg 82%
    08:00 +6°C° 0 mm 4 mps 695 mmHg 76%
    09:00 +7°C° 0 mm 5 mps 695 mmHg 69%
    10:00 +8°C° 0 mm 6 mps 696 mmHg 63%
    11:00 +8°C° 0 mm 6 mps 696 mmHg 63%
    12:00 +8°C° 0 mm 6 mps 695 mmHg 62%
    13:00 +9°C° 0 mm 6 mps 695 mmHg 62%
    14:00 +9°C° 0.1 mm 5 mps 695 mmHg 64%
    15:00 +8°C° 0.1 mm 5 mps 695 mmHg 66%
    16:00 +8°C° 0.1 mm 4 mps 695 mmHg 69%
    17:00 +7°C° 0.2 mm 4 mps 695 mmHg 73%
    18:00 +7°C° 0.2 mm 4 mps 696 mmHg 77%
    19:00 +6°C° 0.2 mm 4 mps 696 mmHg 81%
    20:00 +5°C° 0.1 mm 4 mps 696 mmHg 82%
    21:00 +4°C° 0.1 mm 3 mps 696 mmHg 83%
    22:00 +3°C° 0.1 mm 3 mps 696 mmHg 84%
    23:00 +3°C° 0 mm 3 mps 696 mmHg 84%
    Show more